Location: Mt. Graham
(32.7020°N, 109.8880°W)
Time: 13:19:34
(UTC-07:00)

OTV 5 (USA 277) - Visible Passes

Search period start: 22 November 2017 00:00
Search period end: 02 December 2017 00:00
Orbit: 404 x 417 km, 43.0° (Epoch: 07 September)

Date Brightness Start Highest point End Pass type
(mag) Time Alt. Az. Time Alt. Az. Time Alt. Az.
22 Nov ? 04:28:50 12° E 04:28:50 12° E 04:29:11 10° E visible
22 Nov ? 06:01:36 17° W 06:03:18 25° SW 06:06:02 10° SSE visible
23 Nov ? 05:13:16 33° S 05:13:16 33° S 05:15:26 10° SE visible
28 Nov ? 19:08:58 10° SSW 19:10:16 20° SSW 19:10:16 20° SSW visible
29 Nov ? 18:18:29 10° S 18:21:05 21° SE 18:21:56 19° ESE visible
30 Nov ? 19:03:47 10° WSW 19:06:17 47° WSW 19:06:17 47° WSW visible
01 Dec ? 18:12:46 10° SW 18:16:04 63° SSE 18:17:49 25° ENE visible
